Miscellaneous Local Product
Issued by NWS Hastings, NE

Home | Current Version | Previous Version | Text Only | Print | Product List | Glossary Off
Versions: 1 2 3 4 5 6 7 8 9 10 11 12 13 14 15 16 17 18 19 20 21 22 23 24 25 26 27 28 29 30 31 32 33 34 35 36 37 38 39 40 41 42 43 44 45 46 47 48 49 50

448
AXUS43 KGID 220902
MISGRI

GID CWA HOURLY WEATHER ROUNDUP
NATIONAL WEATHER SERVICE HASTINGS NE
400 AM CDT FRI SEP 22 2017

NOTE: "FAIR" INDICATES FEW OR NO CLOUDS BELOW 12,000 FEET WITH NO
SIGNIFICANT WEATHER AND/OR OBSTRUCTIONS TO VISIBILITY.

...SOUTH CENTRAL NEBRASKA...

CITY           SKY/WX    TMP DP  RH WIND       PRES   REMARKS
GRAND ISLAND   CLEAR     77  71  82 S20G26    29.75F
HASTINGS       CLEAR     78  68  71 S13G24    29.77F
KEARNEY        CLEAR     78  68  71 S22G31    29.73F
ORD            CLEAR     78  66  66 S17G29    29.68F
YORK           CLEAR     77  72  83 S15       29.78F
AURORA         CLEAR     77  71  81 S16G24    29.77F
LEXINGTON      CLEAR     78  66  67 S17G26    29.70S
HOLDREGE       CLEAR     77  66  68 S18G26    29.73F
HEBRON         CLEAR     80  70  71 S15G22    29.80S

...NEBRASKA PANHANDLE...

CITY           SKY/WX    TMP DP  RH WIND       PRES   REMARKS
CHADRON        CLOUDY    52  40  63 N9        29.71S
ALLIANCE       CLEAR     50  41  71 N14       29.66R
SCOTTSBLUFF    PTCLDY    52  40  63 N5        29.71R
SIDNEY         CLEAR     59  30  33 SW14      29.67R

...WESTERN AND NORTH CENTRAL NEBRASKA...

CITY           SKY/WX    TMP DP  RH WIND       PRES   REMARKS
VALENTINE      CLEAR     70  54  56 S20       29.59F
AINSWORTH      CLEAR     71  63  77 S16       29.64S
ONEILL         CLEAR     78  69  73 S22G30    29.68F
BROKEN BOW     CLEAR     77  67  71 S20G28    29.68S
IMPERIAL       CLEAR     66  43  43 S9        29.67S
NORTH PLATTE   CLEAR     78  64  61 S17       29.65R
MCCOOK         LGT RAIN  78  65  63 S18G28    29.68S

...EASTERN NEBRASKA...

CITY           SKY/WX    TMP DP  RH WIND       PRES   REMARKS
NORFOLK        CLEAR     78  71  79 S20G26    29.74S
SO SIOUX CITY  CLEAR     78  73  84 S9        29.77S
TEKAMAH        CLEAR     77  71  82 SE10      29.79S
COLUMBUS       CLEAR     79  71  76 S17       29.76S
ALBION         CLEAR     78  72  81 S14G23    29.74S
OMAHA EPPLEY   PTCLDY    79  71  76 S16       29.82S
OFFUTT AFB     PTCLDY    77  71  83 SE13      29.82S
MILLARD        CLEAR     79  73  80 SE9       29.82S
LINCOLN        CLEAR     79  70  74 S17       29.80S
NEBRASKA CITY  CLEAR     76  74  92 S14       29.85F
BEATRICE       CLEAR     79  70  73 S14       29.83S
FALLS CITY     PTCLDY    78  70  76 S13       29.86S

...NORTHERN KANSAS...

CITY           SKY/WX    TMP DP  RH WIND       PRES   REMARKS
GOODLAND       CLEAR     65  48  54 S15       29.72S
HILL CITY      CLEAR     79  68  69 S20G31    29.74F
NORTON         SUNNY     75  61  60 S22G28    29.72S
PHILLIPSBURG   CLEAR     79  66  65 S15G25    29.75R
SMITH CENTER   CLEAR     79  66  65 S17G29    29.77S
HAYS           CLEAR     78  68  71 S20G26    29.78S
RUSSELL        CLEAR     78  67  68 S23G30    29.79R
CONCORDIA      CLEAR     79  69  71 S23       29.81S
SALINA         CLEAR     82  68  62 S18G30    29.82F
TOPEKA         CLEAR     77  71  82 SE8       29.89S



USA.gov is the U.S. government's official web portal to all federal, state and local government web resources and services.